Location: Newark
(44.0167°N, 1.3500°E)
Time: 05:18:56
(UTC+00:00)

N. Korean satellite - Visible Passes

Search period start: 17 October 2019 00:00
Search period end: 27 October 2019 00:00
Orbit: 455 x 508 km, 97.2° (Epoch: 16 October)

Date Brightness Start Highest point End Pass type
(mag) Time Alt. Az. Time Alt. Az. Time Alt. Az.
18 Oct 7.4 05:40:06 10° NNE 05:43:38 56° E 05:47:13 10° S visible
18 Oct 9.8 17:51:12 10° SW 17:53:43 19° W 17:56:17 10° NW visible
19 Oct 9.1 05:15:09 10° NE 05:18:17 27° E 05:21:25 10° SSE visible
20 Oct 10.1 04:50:50 10° ENE 04:52:50 14° E 04:54:49 10° SE visible
21 Oct 10.3 18:10:00 10° WSW 18:11:20 12° W 18:12:42 10° WNW visible
22 Oct 8.0 05:32:19 10° NNE 05:35:50 45° E 05:39:21 10° S visible
22 Oct 9.3 17:43:01 10° SSW 17:45:50 24° W 17:48:41 10° NW visible
23 Oct 9.4 05:07:29 10° NE 05:10:25 22° E 05:13:22 10° SSE visible
24 Oct 10.4 04:43:35 10° ENE 04:44:56 12° E 04:46:16 10° ESE visible
25 Oct 6.8 05:49:39 10° NNE 05:53:19 78° ESE 05:57:01 10° S visible
25 Oct 10.0 18:01:23 10° SW 18:03:24 15° W 18:05:26 10° NW visible
26 Oct 8.4 05:24:32 10° NNE 05:27:58 36° E 05:31:24 10° SSE visible
26 Oct 8.8 17:34:51 10° SSW 17:37:54 29° W 17:41:01 10° NNW visible
